| time (UTC) | temp F | wind direction | speed MPH | gust MPH | rain 1hr in | rain 24hr in | rain mn in | humidity % | barometer mb |
| 20260905000004 | 72 | 266 | 3.0 | 7.0 | 0.00 | 0.00 | 0.00 | 40 | 1010.1 |
| 20260904234503 | 73 | 206 | 2.0 | 6.0 | 0.00 | 0.00 | 0.00 | 36 | 1010.4 |
| 20260904233003 | 73 | 169 | 3.0 | 9.0 | 0.00 | 0.00 | 0.00 | 34 | 1010.6 |
| 20260904231502 | 73 | 250 | 2.0 | 10.0 | 0.00 | 0.00 | 0.00 | 36 | 1010.6 |
| 20260904230109 | 74 | 229 | 3.0 | 11.0 | 0.00 | 0.00 | 0.00 | 33 | 1010.8 |
| 20260904224559 | 74 | 171 | 3.0 | 7.0 | 0.00 | 0.00 | 0.00 | 29 | 1010.9 |
| 20260904223101 | 74 | 248 | 2.0 | 8.0 | 0.00 | 0.00 | 0.00 | 29 | 1011.1 |
| 20260904221558 | 75 | 82 | 2.0 | 9.0 | 0.00 | 0.00 | 0.00 | 28 | 1011.2 |
| 20260904220056 | 75 | 250 | 3.0 | 7.0 | 0.00 | 0.00 | 0.00 | 22 | 1011.3 |
| 20260904214604 | 75 | 167 | 2.0 | 7.0 | 0.00 | 0.00 | 0.00 | 21 | 1011.5 |
| 20260904213054 | 76 | 166 | 2.0 | 6.0 | 0.00 | 0.00 | 0.00 | 18 | 1011.7 |
| 20260904211556 | 76 | 182 | 1.0 | 8.0 | 0.00 | 0.00 | 0.00 | 19 | 1011.7 |
| 20260904210052 | 76 | 158 | 2.0 | 8.0 | 0.00 | 0.00 | 0.00 | 19 | 1011.7 |
| 20260904204552 | 76 | 221 | 1.0 | 14.0 | 0.00 | 0.00 | 0.00 | 20 | 1011.6 |
| 20260904203049 | 76 | 173 | 2.0 | 9.0 | 0.00 | 0.00 | 0.00 | 18 | 1011.8 |
| 20260904201548 | 76 | 207 | 2.0 | 8.0 | 0.00 | 0.00 | 0.00 | 19 | 1011.9 |
| 20260904200047 | 75 | 221 | 2.0 | 6.0 | 0.00 | 0.00 | 0.00 | 19 | 1011.9 |
| 20260904194600 | 75 | 112 | 1.0 | 5.0 | 0.00 | 0.00 | 0.00 | 20 | 1012.2 |
| 20260904193045 | 75 | 237 | 2.0 | 6.0 | 0.00 | 0.00 | 0.00 | 19 | 1012.2 |
| 20260904191543 | 74 | 242 | 2.0 | 5.0 | 0.00 | 0.00 | 0.00 | 21 | 1012.2 |
| 20260904190042 | 73 | 88 | 2.0 | 8.0 | 0.00 | 0.00 | 0.00 | 21 | 1012.3 |
| 20260904184539 | 73 | 213 | 1.0 | 6.0 | 0.00 | 0.00 | 0.00 | 21 | 1012.3 |
| 20260904183040 | 73 | 178 | 1.0 | 6.0 | 0.00 | 0.00 | 0.00 | 21 | 1012.2 |
| 20260904181539 | 72 | 152 | 1.0 | 5.0 | 0.00 | 0.00 | 0.00 | 21 | 1012.2 |
| 20260904180048 | 72 | 244 | 2.0 | 5.0 | 0.00 | 0.00 | 0.00 | 21 | 1012.3 |
| 20260904174541 | 71 | 195 | 2.0 | 5.0 | 0.00 | 0.00 | 0.00 | 21 | 1012.2 |
| 20260904173038 | 70 | 215 | 2.0 | 5.0 | 0.00 | 0.00 | 0.00 | 20 | 1011.9 |
| 20260904171600 | 69 | 234 | 2.0 | 6.0 | 0.00 | 0.00 | 0.00 | 22 | 1011.9 |
| 20260904170027 | 68 | 182 | 1.0 | 5.0 | 0.00 | 0.00 | 0.00 | 23 | 1011.8 |
| 20260904164521 | 66 | 215 | 2.0 | 6.0 | 0.00 | 0.00 | 0.00 | 26 | 1011.5 |
| 20260904163017 | 64 | 206 | 3.0 | 6.0 | 0.00 | 0.00 | 0.00 | 29 | 1011.3 |
| 20260904161515 | 63 | 82 | 2.0 | 5.0 | 0.00 | 0.00 | 0.00 | 33 | 1011.0 |
| 20260904160016 | 63 | 142 | 2.0 | 7.0 | 0.00 | 0.00 | 0.00 | 33 | 1010.9 |
| 20260904154528 | 62 | 128 | 1.0 | 5.0 | 0.00 | 0.00 | 0.00 | 31 | 1010.7 |
| 20260904153009 | 61 | 164 | 1.0 | 7.0 | 0.00 | 0.00 | 0.00 | 31 | 1010.5 |
| 20260904151504 | 61 | 214 | 1.0 | 5.0 | 0.00 | 0.00 | 0.00 | 34 | 1010.3 |
| 20260904150106 | 60 | 264 | 2.0 | 4.0 | 0.00 | 0.00 | 0.00 | 32 | 1010.2 |
| 20260904144558 | 59 | 180 | 1.0 | 4.0 | 0.00 | 0.00 | 0.00 | 29 | 1010.0 |
| 20260904143059 | 58 | 148 | 2.0 | 8.0 | 0.00 | 0.00 | 0.00 | 27 | 1009.7 |
| 20260904141555 | 58 | 300 | 0.0 | 6.0 | 0.00 | 0.00 | 0.00 | 21 | 1009.7 |
| 20260904140053 | 58 | 186 | 1.0 | 7.0 | 0.00 | 0.00 | 0.00 | 16 | 1009.3 |
| 20260904134552 | 57 | 192 | 2.0 | 9.0 | 0.00 | 0.00 | 0.00 | 22 | 1009.2 |
| 20260904133059 | 57 | 186 | 2.0 | 10.0 | 0.00 | 0.00 | 0.00 | 30 | 1009.0 |
| 20260904131547 | 57 | 216 | 3.0 | 8.0 | 0.00 | 0.00 | 0.00 | 36 | 1008.8 |
| 20260904130046 | 57 | 244 | 2.0 | 7.0 | 0.00 | 0.00 | 0.00 | 38 | 1008.4 |
| 20260904124647 | 57 | 205 | 3.0 | 8.0 | 0.00 | 0.00 | 0.00 | 37 | 1008.4 |
| 20260904123044 | 57 | 209 | 3.0 | 7.0 | 0.00 | 0.00 | 0.00 | 38 | 1008.4 |
| 20260904121544 | 57 | 211 | 4.0 | 12.0 | 0.00 | 0.00 | 0.00 | 38 | 1008.4 |
| 20260904120055 | 57 | 215 | 4.0 | 9.0 | 0.00 | 0.00 | 0.00 | 39 | 1008.5 |
| 20260904114540 | 57 | 228 | 4.0 | 9.0 | 0.00 | 0.00 | 0.00 | 38 | 1008.6 |
| 20260904113040 | 57 | 179 | 4.0 | 9.0 | 0.00 | 0.00 | 0.00 | 39 | 1008.7 |
| 20260904111538 | 57 | 234 | 4.0 | 9.0 | 0.00 | 0.00 | 0.00 | 39 | 1008.6 |
| 20260904110038 | 57 | 202 | 3.0 | 9.0 | 0.00 | 0.00 | 0.00 | 39 | 1008.7 |
| 20260904104559 | 57 | 219 | 4.0 | 9.0 | 0.00 | 0.00 | 0.00 | 37 | 1008.8 |
| 20260904103035 | 57 | 252 | 5.0 | 10.0 | 0.00 | 0.00 | 0.00 | 36 | 1008.9 |
| 20260904101538 | 57 | 225 | 3.0 | 10.0 | 0.00 | 0.00 | 0.00 | 32 | 1008.9 |
| 20260904100028 | 57 | 218 | 4.0 | 17.0 | 0.00 | 0.00 | 0.00 | 28 | 1009.0 |
| 20260904094530 | 57 | 219 | 3.0 | 10.0 | 0.00 | 0.00 | 0.00 | 24 | 1009.0 |
| 20260904093022 | 57 | 200 | 3.0 | 10.0 | 0.00 | 0.00 | 0.00 | 19 | 1009.3 |
| 20260904091521 | 57 | 205 | 3.0 | 5.0 | 0.00 | 0.00 | 0.00 | 14 | 1009.5 |
| 20260904090020 | 58 | 172 | 3.0 | 6.0 | 0.00 | 0.00 | 0.00 | 15 | 1009.8 |
| 20260904084516 | 58 | 200 | 2.0 | 6.0 | 0.00 | 0.00 | 0.00 | 16 | 1010.0 |
| 20260904083013 | 58 | 216 | 2.0 | 6.0 | 0.00 | 0.00 | 0.00 | 15 | 1010.4 |
| 20260904081512 | 58 | 202 | 2.0 | 4.0 | 0.00 | 0.00 | 0.00 | 14 | 1010.4 |
| 20260904080012 | 58 | 198 | 2.0 | 5.0 | 0.00 | 0.00 | 0.00 | 15 | 1010.4 |
| 20260904074509 | 58 | 187 | 2.0 | 4.0 | 0.00 | 0.00 | 0.00 | 18 | 1010.4 |
| 20260904073008 | 58 | 205 | 1.0 | 6.0 | 0.00 | 0.00 | 0.00 | 20 | 1010.5 |
| 20260904071506 | 59 | 199 | 2.0 | 4.0 | 0.00 | 0.00 | 0.00 | 24 | 1010.5 |
| 20260904070006 | 59 | 215 | 1.0 | 4.0 | 0.00 | 0.00 | 0.00 | 20 | 1010.5 |
| 20260904064607 | 60 | 203 | 2.0 | 4.0 | 0.00 | 0.00 | 0.00 | 19 | 1010.5 |
| 20260904063054 | 60 | 222 | 1.0 | 3.0 | 0.00 | 0.00 | 0.00 | 17 | 1010.5 |
| 20260904061550 | 60 | 219 | 1.0 | 4.0 | 0.00 | 0.00 | 0.00 | 18 | 1010.5 |
| 20260904060112 | 60 | 266 | 1.0 | 3.0 | 0.00 | 0.00 | 0.00 | 17 | 1010.5 |
| 20260904054541 | 61 | 238 | 2.0 | 6.0 | 0.00 | 0.00 | 0.00 | 17 | 1010.5 |
| 20260904053119 | 60 | 159 | 1.0 | 5.0 | 0.00 | 0.00 | 0.00 | 16 | 1010.6 |
| 20260904051543 | 60 | 196 | 1.0 | 3.0 | 0.00 | 0.00 | 0.00 | 17 | 1010.7 |
| 20260904050034 | 60 | 178 | 1.0 | 4.0 | 0.00 | 0.00 | 0.00 | 20 | 1010.7 |
| 20260904044523 | 60 | 192 | 1.0 | 3.0 | 0.00 | 0.00 | 0.00 | 24 | 1010.8 |
| 20260904043019 | 59 | 220 | 1.0 | 3.0 | 0.00 | 0.00 | 0.00 | 27 | 1010.7 |
| 20260904041516 | 59 | 188 | 1.0 | 4.0 | 0.00 | 0.00 | 0.00 | 32 | 1010.6 |
| 20260904040013 | 59 | 187 | 1.0 | 3.0 | 0.00 | 0.00 | 0.00 | 35 | 1010.5 |
| 20260904034510 | 59 | 240 | 1.0 | 5.0 | 0.00 | 0.00 | 0.00 | 36 | 1010.5 |
| 20260904033003 | 58 | 160 | 1.0 | 5.0 | 0.00 | 0.00 | 0.00 | 38 | 1010.5 |
| 20260904031601 | 58 | 181 | 1.0 | 5.0 | 0.00 | 0.00 | 0.00 | 39 | 1010.4 |
| 20260904030059 | 59 | 171 | 0.0 | 2.0 | 0.00 | 0.00 | 0.00 | 39 | 1010.0 |
| 20260904024611 | 59 | 168 | 1.0 | 5.0 | 0.00 | 0.00 | 0.00 | 39 | 1009.8 |
| 20260904023100 | 60 | 201 | 0.0 | 2.0 | 0.00 | 0.00 | 0.00 | 42 | 1009.6 |
| 20260904021545 | 60 | 201 | 0.0 | 2.0 | 0.00 | 0.00 | 0.00 | 44 | 1009.4 |
| 20260904020042 | 61 | 201 | 0.0 | 3.0 | 0.00 | 0.00 | 0.00 | 50 | 1009.4 |
| 20260904014537 | 62 | 231 | 2.0 | 4.0 | 0.00 | 0.00 | 0.00 | 48 | 1009.6 |
| 20260904013034 | 63 | 231 | 1.0 | 4.0 | 0.00 | 0.00 | 0.00 | 50 | 1009.7 |
| 20260904011532 | 64 | 211 | 1.0 | 4.0 | 0.00 | 0.00 | 0.00 | 47 | 1009.8 |
| 20260904010024 | 65 | 211 | 2.0 | 5.0 | 0.00 | 0.00 | 0.00 | 45 | 1009.9 |
| 20260904004519 | 66 | 244 | 2.0 | 5.0 | 0.00 | 0.00 | 0.00 | 45 | 1009.8 |
| 20260904003015 | 67 | 235 | 3.0 | 5.0 | 0.00 | 0.00 | 0.00 | 44 | 1009.7 |
| 20260904001511 | 69 | 209 | 2.0 | 5.0 | 0.00 | 0.00 | 0.00 | 41 | 1009.7 |